DW4915 Mazarete ES current weather conditions

sailwx.info

Wind from 248

Air temperature 5.6° C
Dewpoint 2.7° C

Last reported at 2014-Oct-31 19:46 UTC.
Time now 2014-Nov-01 08:24 UTC

Location: N 40°58' W 002°11'.
View on Google Maps.

See reports from other nearby stations

  
Tides and Currents Weather Stations Pressure Air Temp Water Temp Dewpoint Dewpoint Depression Visibility Wind Speed Wind Dir Waves Ship Positions
date/time (UTC)wind fromknots sea level pressurealtimeterstation pressurevisibilityair tempwater tempwave heightnotes
2014-Oct-31 19:46 248 5.6
2014-Oct-31 19:36 248 5.6
2014-Oct-31 19:31 247 6.1
2014-Oct-31 19:26 249 6.1
2014-Oct-31 19:16 248 6.1
2014-Oct-31 19:11 248 6.7
2014-Oct-31 19:06 248 6.7
2014-Oct-31 18:56 248 6.7
2014-Oct-31 18:51 248 7.2
2014-Oct-31 18:46 249 7.2
2014-Oct-31 18:41 247 7.2
2014-Oct-31 18:31 248 7.8
2014-Oct-31 18:26 250 7.8
2014-Oct-31 18:16 248 8.3
2014-Oct-31 18:11 248 8.9
2014-Oct-31 18:01 248 9.4
2014-Oct-31 17:56 248 10.0
2014-Oct-31 17:46 248 11.1
2014-Oct-31 17:41 248 11.1
2014-Oct-31 17:36 250 12.2
2014-Oct-31 17:31 248 12.8
2014-Oct-31 17:26 248 13.3
2014-Oct-31 17:16 248 15.0
2014-Oct-31 17:11 248 16.1
2014-Oct-31 17:06 248 16.7
2014-Oct-31 16:56 248 18.3
2014-Oct-31 16:51 250 18.9
2014-Oct-31 16:46 250 18.9
2014-Oct-31 16:41 248 19.4
2014-Oct-31 16:31 248 19.4
2014-Oct-31 16:26 248 20.0
2014-Oct-31 16:21 248 20.0
2014-Oct-31 16:16 249 2 gusting 5 20.0
2014-Oct-31 16:06 248 4 gusting 6 20.0
2014-Oct-31 16:01 248 2 gusting 8 20.6
2014-Oct-31 15:56 247 5 gusting 8 20.6
2014-Oct-31 15:46 247 3 gusting 7 21.1
2014-Oct-31 15:41 250 4 gusting 7 21.1
2014-Oct-31 15:36 247 0 gusting 5 21.1
2014-Oct-31 15:31 247 1 gusting 6 21.1
2014-Oct-31 15:21 248 3 gusting 6 21.1
2014-Oct-31 15:16 250 4 gusting 6 21.1
2014-Oct-31 15:11 249 3 gusting 6 21.1
2014-Oct-31 15:06 247 0 gusting 6 21.1
2014-Oct-31 14:56 248 2 gusting 5 21.1
2014-Oct-31 14:51 248 3 gusting 9 21.1
2014-Oct-31 14:41 248 3 gusting 6 21.1
2014-Oct-31 14:36 248 2 gusting 7 21.1
2014-Oct-31 14:31 248 3 gusting 7 21.1
2014-Oct-31 14:26 249 1 gusting 9 21.1
2014-Oct-31 14:21 249 6 gusting 9 21.1
2014-Oct-31 14:16 249 3 gusting 6 21.1
2014-Oct-31 14:11 248 4 gusting 9 21.1
2014-Oct-31 14:06 248 5 gusting 7 21.7
2014-Oct-31 14:01 248 3 gusting 7 21.7
2014-Oct-31 13:56 248 3 gusting 7 21.7
2014-Oct-31 13:51 248 4 gusting 7 21.7
2014-Oct-31 13:41 248 2 gusting 6 21.7
2014-Oct-31 13:36 249 1 gusting 6 21.7
2014-Oct-31 13:26 248 3 gusting 8 21.1
2014-Oct-31 13:21 248 1 gusting 7 21.1
2014-Oct-31 13:11 248 5 gusting 6 21.1
2014-Oct-31 13:01 248 3 gusting 7 21.1
2014-Oct-31 12:56 249 3 gusting 9 21.1
2014-Oct-31 12:51 248 4 gusting 9 21.1
2014-Oct-31 12:46 248 4 gusting 6 21.7
2014-Oct-31 12:41 248 4 gusting 9 21.7
2014-Oct-31 12:36 248 6 gusting 9 21.7
2014-Oct-31 12:31 248 1 gusting 7 21.7
2014-Oct-31 12:26 247 2 gusting 7 21.7
2014-Oct-31 12:16 247 2 gusting 6 21.7
2014-Oct-31 12:11 248 4 gusting 6 21.7
2014-Oct-31 12:06 248 21.1
2014-Oct-31 12:01 248 3 gusting 6 21.1
2014-Oct-31 11:56 246 0 gusting 7 21.1
2014-Oct-31 11:51 248 21.1
2014-Oct-31 11:46 248 1 gusting 6 21.1
2014-Oct-31 11:36 248 2 gusting 6 20.6
2014-Oct-31 11:31 248 0 gusting 5 20.6
2014-Oct-31 11:26 247 2 gusting 6 20.6
2014-Oct-31 11:21 248 3 gusting 6 20.0
2014-Oct-31 11:16 248 20.0
2014-Oct-31 11:11 247 0 gusting 5 20.0
2014-Oct-31 11:06 246 1 gusting 4 20.0
2014-Oct-31 10:56 248 3 gusting 6 19.4
2014-Oct-31 10:51 247 2 gusting 4 19.4
2014-Oct-31 10:46 249 0 gusting 4 19.4
2014-Oct-31 10:36 248 1 gusting 3 19.4
2014-Oct-31 10:31 248 18.9
2014-Oct-31 10:26 249 0 gusting 4 18.9
2014-Oct-31 10:16 248 1 gusting 3 17.8
2014-Oct-31 10:11 248 1 gusting 3 17.8
2014-Oct-31 10:01 248 2 gusting 3 17.8
2014-Oct-31 09:56 248 17.8
2014-Oct-31 09:46 248 17.2
2014-Oct-31 09:41 248 17.2
2014-Oct-31 09:36 248 17.2
2014-Oct-31 09:31 248 17.2
2014-Oct-31 09:26 249 16.7
2014-Oct-31 09:21 248 16.1
2014-Oct-31 09:16 247 15.6
2014-Oct-31 09:11 249 15.0
2014-Oct-31 09:06 250 14.4
2014-Oct-31 09:01 248 14.4
2014-Oct-31 08:56 248 13.9
2014-Oct-31 08:51 249 13.3
2014-Oct-31 08:46 248 12.8
2014-Oct-31 08:41 247 12.2
2014-Oct-31 08:36 247 11.7
2014-Oct-31 08:31 248 11.1
2014-Oct-31 08:26 248 10.6
2014-Oct-31 08:21 248 10.0
2014-Oct-31 08:16 249 9.4
2014-Oct-31 08:11 248 8.9
2014-Oct-31 08:01 247 7.2
2014-Oct-31 07:56 247 6.1
2014-Oct-31 07:51 246 5.6
2014-Oct-31 07:46 250 5.0
2014-Oct-31 07:36 248 3.9
2014-Oct-31 07:31 247 3.9
2014-Oct-31 07:26 248 3.3
2014-Oct-31 07:21 248 2.8
2014-Oct-31 07:11 248 2.2
2014-Oct-31 07:06 248 2.2
2014-Oct-31 07:01 248 2.2
2014-Oct-31 06:56 249 2.2
2014-Oct-31 06:46 249 2.2
2014-Oct-31 06:41 248 2.2
2014-Oct-31 06:31 248 2.2
2014-Oct-31 06:26 248 2.2
2014-Oct-31 06:21 248 2.2
2014-Oct-31 06:16 247 2.2
2014-Oct-31 06:06 248 2.2
2014-Oct-31 06:01 248 2.2
2014-Oct-31 05:56 248 2.2
2014-Oct-31 05:51 247 2.2
2014-Oct-31 05:46 248 2.2
2014-Oct-31 05:41 246 2.2
2014-Oct-31 05:36 248 2.2
2014-Oct-31 05:31 248 2.2
2014-Oct-31 05:21 248 2.2
2014-Oct-31 05:16 246 2.2
2014-Oct-31 05:11 248 2.2
2014-Oct-31 05:06 248 2.8
2014-Oct-31 04:56 248 2.8
2014-Oct-31 04:51 247 2.8
2014-Oct-31 04:46 248 2.8
2014-Oct-31 04:41 247 2.8
2014-Oct-31 04:36 248 2.8
2014-Oct-31 04:26 250 2.8
2014-Oct-31 04:21 246 2.8
2014-Oct-31 04:11 248 2.8
2014-Oct-31 04:06 248 2.8
2014-Oct-31 03:56 248 2.8
2014-Oct-31 03:51 248 2.8
2014-Oct-31 03:46 247 2.8
2014-Oct-31 03:41 247 2.8
2014-Oct-31 03:31 248 2.8
2014-Oct-31 03:26 248 2.8
2014-Oct-31 03:21 248 2.8
2014-Oct-31 03:11 248 2.8
2014-Oct-31 03:06 248 2.8
2014-Oct-31 02:56 248 2.8
2014-Oct-31 02:51 248 2.8
2014-Oct-31 02:46 248 2.8
2014-Oct-31 02:41 248 2.8
2014-Oct-31 02:36 247 2.8
2014-Oct-31 02:26 248 2.8
2014-Oct-31 02:21 248 3.3
2014-Oct-31 02:11 246 3.3
2014-Oct-31 02:06 248 3.3
2014-Oct-31 02:01 248 3.3
2014-Oct-31 01:56 248 3.3
2014-Oct-31 01:51 248 3.3
2014-Oct-31 01:46 248 3.3
2014-Oct-31 01:36 247 3.3
2014-Oct-31 01:31 248 3.3
2014-Oct-31 01:26 248 3.9
2014-Oct-31 01:21 247 3.9
2014-Oct-31 01:11 248 3.9
2014-Oct-31 01:01 248 3.9
2014-Oct-31 00:56 248 3.9
2014-Oct-31 00:51 248 3.9
2014-Oct-31 00:46 248 3.9
2014-Oct-31 00:36 248 4.4
2014-Oct-31 00:31 248 4.4
2014-Oct-31 00:21 248 4.4
2014-Oct-31 00:11 248 4.4
2014-Oct-30 23:56 248 4.4
2014-Oct-30 23:51 248 5.0
2014-Oct-30 23:46 249 5.0
2014-Oct-30 23:41 249 5.0
2014-Oct-30 23:36 248 5.0
2014-Oct-30 23:31 247 5.0
2014-Oct-30 23:21 249 5.6
2014-Oct-30 23:16 248 6.1
2014-Oct-30 23:11 248 6.1
2014-Oct-30 23:06 248 6.1
2014-Oct-30 23:01 248 6.7
2014-Oct-30 22:51 248 7.2
2014-Oct-30 22:46 250 7.8
2014-Oct-30 22:36 248 7.8
2014-Oct-30 22:31 248 1 gusting 4 7.8
2014-Oct-30 22:26 248 0 gusting 2 7.2
2014-Oct-30 22:21 248 7.2
2014-Oct-30 22:11 248 7.2
2014-Oct-30 22:06 248 7.8
2014-Oct-30 22:01 248 7.2
2014-Oct-30 21:56 248 7.2
2014-Oct-30 21:51 248 7.2
2014-Oct-30 21:46 249 7.8
2014-Oct-30 21:41 250 7.8
2014-Oct-30 21:36 248 8.3
2014-Oct-30 21:31 248 8.3
2014-Oct-30 21:26 248 8.9
2014-Oct-30 21:21 248 8.9
2014-Oct-30 21:11 248 9.4
2014-Oct-30 21:06 248 10.0
2014-Oct-30 21:01 248 10.0
2014-Oct-30 20:56 248 10.6
2014-Oct-30 20:51 248 11.1
2014-Oct-30 20:41 248 11.7
2014-Oct-30 20:31 248 12.8
2014-Oct-30 20:26 248 2 gusting 6 13.3
2014-Oct-30 20:21 248 2 gusting 6 14.4
2014-Oct-30 20:16 249 3 gusting 8 15.0
2014-Oct-30 20:11 247 5 gusting 11 15.0
2014-Oct-30 20:06 249 7 gusting 11 15.0
2014-Oct-30 20:01 249 7 gusting 11 14.4
2014-Oct-30 19:56 248 7 gusting 9 14.4
2014-Oct-30 19:51 248 6 gusting 8 14.4
2014-Oct-30 19:46 248 6 gusting 8 14.4
2014-Oct-30 19:41 248 6 gusting 8 14.4
2014-Oct-30 19:36 250 6 gusting 7 14.4
2014-Oct-30 19:31 248 6 gusting 7 14.4
2014-Oct-30 19:26 249 6 gusting 7 14.4
2014-Oct-30 19:21 248 6 gusting 8 14.4
2014-Oct-30 19:16 248 6 gusting 8 14.4
2014-Oct-30 19:06 249 6 gusting 8 15.0
2014-Oct-30 19:01 247 6 gusting 8 15.0
2014-Oct-30 18:56 248 6 gusting 8 15.0
2014-Oct-30 18:51 249 6 gusting 8 15.0
2014-Oct-30 18:46 250 6 gusting 8 15.0
2014-Oct-30 18:41 247 6 gusting 8 15.6
2014-Oct-30 18:36 248 7 gusting 8 15.6
2014-Oct-30 18:31 249 7 gusting 8 15.6
2014-Oct-30 18:26 248 6 gusting 8 15.6
2014-Oct-30 18:16 248 6 gusting 7 15.0
2014-Oct-30 18:11 248 6 gusting 7 15.0
2014-Oct-30 18:01 248 6 gusting 7 15.0
2014-Oct-30 17:56 248 6 gusting 7 15.0
2014-Oct-30 17:51 248 6 gusting 7 15.0
2014-Oct-30 17:36 248 5 gusting 6 15.6
2014-Oct-30 17:31 248 6 gusting 6 15.6
2014-Oct-30 17:21 248 5 gusting 6 16.1
2014-Oct-30 17:16 248 6 gusting 6 16.1
2014-Oct-30 17:06 248 6 gusting 7 17.2
2014-Oct-30 17:01 250 6 gusting 7 17.8
2014-Oct-30 16:56 248 5 gusting 6 18.3
2014-Oct-30 16:51 248 5 gusting 6 18.9
2014-Oct-30 16:46 248 5 gusting 6 19.4
2014-Oct-30 16:36 248 3 gusting 6 20.0
2014-Oct-30 16:31 248 3 gusting 6 20.6
2014-Oct-30 16:26 248 2 gusting 4 21.1
2014-Oct-30 16:21 248 1 gusting 6 21.1
2014-Oct-30 16:16 249 3 gusting 6 21.1
2014-Oct-30 16:06 249 2 gusting 6 21.1
2014-Oct-30 16:01 248 3 gusting 6 21.1
2014-Oct-30 15:56 248 4 gusting 6 21.7
2014-Oct-30 15:51 248 4 gusting 6 21.7
2014-Oct-30 15:46 248 4 gusting 8 21.7
2014-Oct-30 15:41 250 5 gusting 8 22.2
2014-Oct-30 15:36 248 4 gusting 6 22.2
2014-Oct-30 15:31 248 4 gusting 7 22.2
2014-Oct-30 15:26 248 3 gusting 7 22.2
2014-Oct-30 15:21 248 1 gusting 5 22.2
2014-Oct-30 15:16 247 2 gusting 6 22.8
2014-Oct-30 15:11 248 3 gusting 6 22.8
2014-Oct-30 15:06 249 3 gusting 6 22.8
2014-Oct-30 15:01 249 22.8
2014-Oct-30 14:56 248 1 gusting 6 22.8
2014-Oct-30 14:51 248 5 gusting 6 22.8
2014-Oct-30 14:46 249 4 gusting 6 22.8
2014-Oct-30 14:41 248 3 gusting 6 22.8
2014-Oct-30 14:36 249 5 gusting 9 22.8
2014-Oct-30 14:31 248 2 gusting 10 22.8
2014-Oct-30 14:26 248 22.2
2014-Oct-30 14:21 248 3 gusting 6 22.2
2014-Oct-30 14:16 249 5 gusting 6 22.2
2014-Oct-30 14:11 248 1 gusting 6 22.8
2014-Oct-30 14:06 248 2 gusting 5 22.8
2014-Oct-30 14:01 248 22.8
2014-Oct-30 13:56 248 4 gusting 7 22.8
2014-Oct-30 13:51 249 3 gusting 7 22.8
2014-Oct-30 13:41 248 22.2
2014-Oct-30 13:36 248 2 gusting 7 22.2
2014-Oct-30 13:31 248 4 gusting 7 22.2
2014-Oct-30 13:21 248 3 gusting 6 21.7
2014-Oct-30 13:16 248 22.2
2014-Oct-30 13:11 248 3 gusting 5 22.2
2014-Oct-30 13:06 248 2 gusting 5 22.2
2014-Oct-30 12:56 249 2 gusting 6 21.7
2014-Oct-30 12:51 249 5 gusting 8 21.7
2014-Oct-30 12:46 248 5 gusting 8 21.7
2014-Oct-30 12:36 248 3 gusting 6 22.2
2014-Oct-30 12:31 248 0 gusting 4 22.2
2014-Oct-30 12:26 248 22.2
2014-Oct-30 12:21 248 0 gusting 5 21.7
2014-Oct-30 12:16 248 0 gusting 3 21.7
2014-Oct-30 12:11 249 21.7
2014-Oct-30 12:06 250 21.7
2014-Oct-30 12:01 247 21.7
2014-Oct-30 11:56 248 1 gusting 2 21.7
2014-Oct-30 11:46 248 21.1
2014-Oct-30 11:41 250 1 gusting 5 21.1
2014-Oct-30 11:31 248 21.1
2014-Oct-30 11:26 248 20.6
2014-Oct-30 11:21 248 2 gusting 3 20.6
2014-Oct-30 11:16 249 0 gusting 3 20.6
2014-Oct-30 11:11 248 0 gusting 4 20.6
2014-Oct-30 11:06 248 1 gusting 4 20.0
2014-Oct-30 10:56 248 0 gusting 4 20.6
2014-Oct-30 10:51 249 2 gusting 4 20.6
2014-Oct-30 10:46 248 2 gusting 4 20.6
2014-Oct-30 10:36 250 19.4
2014-Oct-30 10:31 248 0 gusting 3 19.4
2014-Oct-30 10:21 249 2 gusting 3 19.4
2014-Oct-30 10:16 247 19.4
2014-Oct-30 10:11 248 0 gusting 2 18.9
2014-Oct-30 10:06 248 18.9
2014-Oct-30 10:01 248 0 gusting 2 18.3
2014-Oct-30 09:56 247 17.8
2014-Oct-30 09:46 248 16.1
2014-Oct-30 09:41 247 15.6
2014-Oct-30 09:36 246 15.0
2014-Oct-30 09:31 249 14.4
2014-Oct-30 09:26 248 14.4
2014-Oct-30 09:16 248 13.3
2014-Oct-30 09:11 249 13.3
2014-Oct-30 09:06 248 12.8
2014-Oct-30 09:01 247 12.2
2014-Oct-30 08:51 248 11.7
2014-Oct-30 08:46 246 11.1
2014-Oct-30 08:41 248 10.6
2014-Oct-30 08:31 248 10.6
2014-Oct-30 08:26 248 10.0
2014-Oct-30 08:21 248 9.4
2014-Oct-30 08:16 248 8.9
2014-Oct-30 08:06 248 7.8
2014-Oct-30 08:01 248 6.7